Broomfield, CO

8:18 PM MST on February 20, 2017 (GMT -0700)
Jeffco

Weather History for KBJC - August, 2013

Change the Weather History Date:

Monday, August 12, 2013

  Actual Average Record
Temperature  
Mean Temperature 68 °F -  
Max Temperature 80 °F 83 °F 96 °F (1996)
Min Temperature 57 °F 59 °F 48 °F (1985)
Cooling Degree Days 4    
Growing Degree Days 18 (Base 50)    
Moisture  
Dew Point 49 °F    
Average Humidity 52    
Maximum Humidity 82    
Minimum Humidity 24    
Precipitation  
Precipitation 0.00 in - - ()
Sea Level Pressure  
Sea Level Pressure 30.26 in    
Wind  
Wind Speed 8 mph (NW)    
Max Wind Speed 23 mph    
Max Gust Speed 29 mph    
Visibility 12 miles    
Events Rain , Thunderstorm    
Averages and records for this station are not official NWS values.
T = Trace of Precipitation, MM = Missing Value Source: NWS Daily Summary

Daily Weather History Graph

Daily Weather History Graph

Search for Another Location

Airport or City:

Trip Planner

Search our weather history database for the weather conditions in past years. The results will help you decide how hot, cold, wet, or windy it might be!

Date:

Astronomy

Aug. 12, 2013 Rise Set
Actual Time 6:09 AM MDT 8:00 PM MDT
Civil Twilight 5:40 AM MDT 8:29 PM MDT
Nautical Twilight 5:04 AM MDT 9:05 PM MDT
Astronomical Twilight 4:26 AM MDT 9:42 PM MDT
Moon 12:02 PM MDT (8/12) 10:55 PM MDT (8/12)
Length of Visible Light 14h 49m
Length of Day
13h 50m
Waxing Crescent, 32% of the Moon is Illuminated
Aug 12
Waxing Crescent
Aug 14
First Quarter
Aug 20
Full
Aug 28
Last Quarter
Sep 5
New

Hourly Weather History & Observations

Time (MDT) Temp. Dew Point Humidity Pressure Visibility Wind Dir Wind Speed Gust Speed Precip Events Conditions
5:53 AM 57.2 °F 50.0 °F 77% 30.23 in 30.0 mi West 4.6 mph - N/A   Mostly Cloudy
6:52 AM 59.0 °F 50.0 °F 72% 30.24 in 50.0 mi Calm Calm - N/A   Mostly Cloudy
7:47 AM 64.4 °F 48.2 °F 56% 30.25 in 35.0 mi NW 9.2 mph - N/A   Mostly Cloudy
8:50 AM 68.0 °F 50.0 °F 52% 30.27 in 35.0 mi North 5.8 mph - N/A   Mostly Cloudy
9:45 AM 69.8 °F 53.6 °F 56% 30.27 in 35.0 mi West 8.1 mph - N/A   Mostly Cloudy
10:47 AM 73.4 °F 48.2 °F 41% 30.27 in 35.0 mi North 8.1 mph - N/A   Mostly Cloudy
11:47 AM 75.2 °F 50.0 °F 41% 30.26 in 30.0 mi Variable 3.5 mph - N/A   Mostly Cloudy
12:49 PM 77.0 °F 48.2 °F 36% 30.25 in 30.0 mi Variable 4.6 mph - N/A   Mostly Cloudy
1:46 PM 75.2 °F 48.2 °F 38% 30.26 in 30.0 mi Calm Calm - N/A   Light Drizzle
2:55 PM 80.6 °F 46.4 °F 30% 30.23 in 40.0 mi NW 23.0 mph 28.8 mph N/A   Mostly Cloudy
3:55 PM 80.6 °F 41.0 °F 24% 30.21 in 40.0 mi NNW 12.7 mph 23.0 mph N/A   Mostly Cloudy
4:46 PM 80.6 °F 41.0 °F 24% 30.20 in 40.0 mi NNW 6.9 mph - N/A   Mostly Cloudy
5:24 PM 77.0 °F 42.8 °F 29% 30.21 in 40.0 mi North 17.3 mph 28.8 mph N/A   Mostly Cloudy
5:45 PM 75.2 °F 41.0 °F 29% 30.22 in 25.0 mi East 19.6 mph 25.3 mph N/A   Mostly Cloudy
6:53 PM 73.4 °F 46.4 °F 38% 30.22 in 25.0 mi ESE 11.5 mph - N/A   Mostly Cloudy
7:55 PM 69.8 °F 46.4 °F 43% 30.27 in 20.0 mi SSW 8.1 mph - N/A   Mostly Cloudy
8:20 PM 68.0 °F 48.2 °F 49% 30.30 in 15.0 mi NNE 10.4 mph 21.9 mph N/A Rain , Thunderstorm Light Thunderstorms and Rain
8:45 PM 62.6 °F 55.4 °F 77% 30.31 in 10.0 mi ENE 12.7 mph - N/A Rain , Thunderstorm Light Thunderstorms and Rain
9:53 PM 60.8 °F 55.4 °F 82% 30.36 in 10.0 mi South 3.5 mph - N/A Rain , Thunderstorm Light Thunderstorms and Rain
11:15 PM 59.0 °F 53.6 °F 82% 30.32 in 10.0 mi WSW 13.8 mph - N/A Rain Light Rain
11:35 PM 59.0 °F 51.8 °F 77% 30.32 in 10.0 mi WSW 18.4 mph 24.2 mph N/A Rain Rain
11:55 PM 57.2 °F 51.8 °F 82% 30.32 in 7.0 mi SW 20.7 mph 26.5 mph N/A Rain Rain